Regional Weather Roundup
Issued by NWS

Home | Current Version | Previous Version | Graphics & Text | Print | Product List | Glossary On
Versions: 1 2 3 4 5 6 7 8 9 10 11 12 13 14 15 16 17 18 19 20 21 22 23 24 25 26 27 28 29 30 31 32 33 34 35 36 37 38 39 40 41 42 43 44 45 46 47 48 49 50
000
ASUS43 KMKX 271959
RWRWI

WISCONSIN REGIONAL WEATHER ROUNDUP
NATIONAL WEATHER SERVICE MILWAUKEE/SULLIVAN WI
300 PM CDT FRI MAR 27 2015

NOTE: "FAIR" INDICATES FEW OR NO CLOUDS BELOW 12,000 FEET WITH NO
SIGNIFICANT WEATHER AND/OR OBSTRUCTIONS TO VISIBILITY.

WIZ001-002-006>008-014>016-023>028-272100-
NORTHWEST WISCONSIN

CITY           SKY/WX    TMP DP  RH WIND       PRES   REMARKS
SUPERIOR ARPT  SUNNY     29   6  37 E9        30.21F WCI  21
ASHLAND        SUNNY     30  11  45 N10       30.21F WCI  21
HAYWARD        SUNNY     31   5  33 SE7       30.15F WCI  24
SIREN          SUNNY     32   4  30 SW6       30.19F WCI  27
CUMBERLAND     SUNNY     32   3  29 W6        30.17F WCI  26
RICE LAKE      SUNNY     31   5  33 S3        30.20F
CHETEK         SUNNY     31   6  35 CALM      30.19F
LADYSMITH      SUNNY     32   5  32 SW3       30.19F
EAU CLAIRE     SUNNY     34   5  29 N7        30.18F WCI  28
MENOMONIE      SUNNY     34   5  29 W5        30.20F WCI  30
NEW RICHMOND   SUNNY     33   4  29 S3        30.19F
OSCEOLA        SUNNY     32   2  27 CALM      30.22F
$$

WIZ003>005-009-010-017-018-272100-
NORTH CENTRAL WISCONSIN

CITY           SKY/WX    TMP DP  RH WIND       PRES   REMARKS
MANITOWISH WTR SUNNY     27   4  37 SE5       30.13F WCI  22
ARBOR VITAE    SUNNY     27  -2  28 CALM      30.13F
WOODRUFF       SUNNY     27  -2  28 CALM      30.13F
RHINELANDER    SUNNY     26   2  35 VRB3      30.13F
EAGLE RIVER    SUNNY     26  -4  27 CALM      30.13S
LAND O LAKES   SUNNY     26  -4  27 NW5       30.13F WCI  21
PHILLIPS       SUNNY     29   5  34 NE6       30.14F WCI  23
TOMAHAWK       SUNNY     28   1  31 CALM      30.15F
MEDFORD        SUNNY     28   5  38 CALM      30.14F
MERRILL        SUNNY     29   3  33 N6        30.15F WCI  23
$$

WIZ029-030-035-036-043>047-272100-
CENTRAL WISCONSIN

CITY           SKY/WX    TMP DP  RH WIND       PRES   REMARKS
WAUSAU         SUNNY     29   6  38 W8        30.14F WCI  21
MOSINEE        NOT AVBL
MARSHFIELD     SUNNY     30   8  39 N7G17     30.16F WCI  23
STEVENS POINT  SUNNY     27   4  36 NE3       30.17F
WAUPACA        SUNNY     32   0  25 CALM      30.18F
WAUTOMA        NOT AVBL
WISC RAPIDS    SUNNY     30   5  34 VRB3      30.19F
CAMP DOUGLAS   NOT AVBL
$$

WIZ011>013-019>022-031-037>040-048>050-272100-
NORTHEAST WISCONSIN

CITY           SKY/WX    TMP DP  RH WIND       PRES   REMARKS
ANTIGO         SUNNY     25   2  37 N3        30.14F
SHAWANO        SUNNY     32   5  31 E5        30.18F WCI  28
OCONTO         SUNNY     27   2  34 NW7       30.19F WCI  19
STURGEON BAY   SUNNY     21   5  49 N9        30.22S WCI  11
GREEN BAY      SUNNY     28  12  51 NE13      30.19F WCI  17
MANITOWOC      NOT AVBL
APPLETON       MOSUNNY   28   1  31 NE8       30.18F WCI  20
CLINTONVILLE   SUNNY     30   1  29 NE6       30.18F WCI  24
OSHKOSH        SUNNY     28   7  41 E9        30.17F WCI  19
$$

WIZ032>034-041-042-053>061-272100-
SOUTHWEST WISCONSIN

CITY           SKY/WX    TMP DP  RH WIND       PRES   REMARKS
LA CROSSE      SUNNY     34   9  35 W8        30.21F WCI  27
SPARTA         SUNNY     34   5  29 NW6       30.19F WCI  29
VIROQUA        SUNNY     30  10  42 N5        30.17F WCI  25
BOSCOBEL       SUNNY     33   7  33 VRB5      30.20F WCI  29
PRAIRIE DU CHI SUNNY     31   6  34 NW7       30.21F WCI  25
PLATTEVILLE    SUNNY     31  14  48 NW8       30.18F WCI  23
$$

WIZ056-057-062-063-064-067-068-272100-
SOUTH CENTRAL WISCONSIN

CITY           SKY/WX    TMP DP  RH WIND       PRES   REMARKS
REEDSBURG      SUNNY     32   2  28 N12       30.17F WCI  23
BARABOO/DELLS  SUNNY     32   2  28 N9        30.16F WCI  25
LONE ROCK      NOT AVBL
MINERAL POINT  SUNNY     32   5  32 NW6       30.16F WCI  26
MADISON        SUNNY     33   5  30 N9G16     30.16F WCI  25
MIDDLETON      SUNNY     33   4  29 N7        30.17F WCI  27
WATERTOWN      SUNNY     30   6  35 NW13      30.16F WCI  20
MONROE         SUNNY     32  10  40 N9        30.15F WCI  24
JANESVILLE     MOSUNNY   34   3  27 NE14G20   30.16F WCI  24
$$

WIZ051-052-058>065-066-070>072-272100-
SOUTHEAST WISCONSIN

CITY           SKY/WX    TMP DP  RH WIND       PRES   REMARKS
MILWAUKEE      MOSUNNY   28  11  48 NE16G25   30.17F WCI  16
WAUKESHA       MOSUNNY   27   5  39 N14G23    30.16F WCI  15
MILWAUKEE/TIMM SUNNY     30   1  29 N7G17     30.17F WCI  23
RACINE         SUNNY     27  13  55 NE16G24   30.18F WCI  15
BURLINGTON     MOSUNNY   30   5  35 NE9       30.15F WCI  21
KENOSHA        MOSUNNY   29  12  49 N14G22    30.16F WCI  18
FOND DU LAC    SUNNY     29   8  41 NE14      30.18F WCI  18
SHEBOYGAN      MOSUNNY   28   8  43 NE15G21   30.18S WCI  16
WEST BEND      MOSUNNY   30   3  31 N13G20    30.16F WCI  20
JUNEAU         SUNNY     29   6  38 N9G17     30.18S WCI  20
$$

LSZ147-162-272100-
LAKE SUPERIOR

STATION/POSITION TIME  TEMP    WIND        PRES    WAVE
                       AIR SEA DIR/SP/G            HT/PER
                 (UTC) (F)     (DEG/KT/KT) (MB)    (FT/S)
DEVILS ISLAND    1900   20      50/  4/  5 1026.1F
PORT WING        1900   23      20/  8/ 11 1024.4F
SAXON HARBOR     1900   23      20/  4/  6 1024.4F
$$

LMZ867-665-643>646-272100-
LAKE MICHIGAN

STATION/POSITION TIME  TEMP    WIND        PRES    WAVE
                       AIR SEA DIR/SP/G            HT/PER
                 (UTC) (F)     (DEG/KT/KT) (MB)    (FT/S)
NORTHPORT PIER   1915   19      10/ 15/ 20 1023.0F
SISTER BAY       1902   26      10/ 16/ 23   N/A
KEWAUNEE LAKESHO 1900           30/ 11/ 18   N/A
SHEBOYGAN LAKESH 1900   22      30/ 17/ 19 1023.9F
PORT WASHINGTON  1940   27      40/ 16/ 20 1022.7F
MILWAUKEE LAKESH 1900   24      30/ 17/ 23   N/A
KENOSHA   LAKESH 1900   24      20/ 18/ 23 1022.0S
$$

TC  - TEMPERATURE IN CELSIUS
VSB - VISIBILITY IN STATUTE MILES
WCI - WIND CHILL INDEX
HX  - HEAT INDEX



USA.gov is the U.S. government's official web portal to all federal, state and local government web resources and services.